Vorticity
20 20 17 12 11 11 10 9 7 6 6 6 4 2 3 9 13 13 12 10 10 10 10 11 11 12 15 19 22 21 14 2 -6 -12 -17 -19 4 27 38 22 16 12 9 6 11 10 6 5 7 7 6 4 5 6 8 10 13 17 18 17 11 7 6 11 14 14 12 11 10
18 17 15 12 12 13 14 14 14 12 10 9 9 5 2 2 8 11 12 12 11 10 10 11 12 12 13 15 17 16 13 5 3 -4 -12 -19 -1 26 44 36 22 12 4 -5 1 6 7 6 3 2 3 5 6 7 8 10 13 16 16 15 12 10 11 12 13 12 10 10 8
16 16 14 12 10 10 12 14 16 17 16 15 16 16 14 8 9 11 13 12 11 11 12 11 12 12 13 14 14 14 12 10 9 3 -4 -9 4 19 34 44 31 19 8 -3 -4 -2 1 2 -1 -2 -2 0 2 3 4 5 7 9 11 12 13 14 14 13 11 9 7 5 4
16 16 15 13 10 7 7 7 12 15 17 16 15 17 20 22 19 15 12 10 11 12 12 12 11 12 13 13 14 14 12 10 8 5 1 -4 0 8 18 29 30 26 18 8 3 -1 -3 -4 -5 -4 -3 -2 -2 -2 1 5 4 3 3 4 7 9 10 10 9 8 6 4 3
14 16 16 14 12 10 8 7 7 10 13 15 12 11 13 19 21 17 12 8 8 10 11 12 12 12 12 13 14 14 14 13 10 8 5 2 2 5 9 10 16 22 25 19 13 9 5 0 -2 -2 -1 -2 -7 -3 5 14 13 8 2 -4 -5 -5 -4 -2 0 2 5 7 10
13 14 15 16 15 14 14 13 11 10 10 13 12 8 6 8 13 14 12 7 5 6 7 10 11 12 13 14 14 15 15 15 14 11 9 8 7 6 4 1 -0 4 13 23 24 21 17 14 11 9 6 0 -9 -5 7 20 22 20 15 6 -1 -5 -7 -7 -4 2 8 15 22
11 13 14 14 15 15 16 17 18 17 16 15 15 12 8 4 5 9 11 9 5 5 6 8 10 12 13 14 16 16 16 16 15 14 13 11 11 10 6 0 -5 -9 -7 3 16 25 30 28 23 20 15 6 -5 -5 4 19 23 24 23 20 15 10 6 1 -2 4 15 30 34
10 11 12 13 13 14 14 15 18 20 21 22 22 18 13 8 4 3 5 9 10 8 7 8 10 12 13 14 16 17 18 18 16 15 13 12 13 13 11 5 -3 -8 -10 -7 -6 6 22 36 28 21 16 13 7 6 12 25 27 26 22 20 19 18 16 10 2 6 18 36 35
9 10 12 12 13 13 12 12 13 15 18 22 26 26 23 14 8 4 3 5 9 10 10 9 9 9 10 12 14 16 18 20 18 17 14 12 11 13 13 12 4 -2 -7 -8 -9 -3 5 14 19 13 8 16 17 18 19 23 23 22 20 19 21 22 21 19 10 9 13 26 24
8 9 10 11 12 12 12 12 11 10 11 14 21 28 32 27 17 10 5 5 7 8 9 10 8 7 7 8 10 13 16 19 20 20 18 15 13 13 14 17 13 6 0 -4 -4 -2 -3 -7 -10 -16 -13 10 16 17 17 18 19 20 21 22 23 23 22 23 15 10 9 16 17
7 8 9 10 11 12 12 12 11 10 8 8 12 21 30 36 28 20 12 8 7 7 7 6 8 7 5 2 4 8 12 16 18 19 20 19 17 17 19 22 20 14 8 3 2 -0 -6 -15 -27 -29 -18 8 10 12 13 12 12 14 17 20 19 17 17 21 18 13 11 14 19
6 7 7 9 10 11 12 13 12 11 9 7 8 12 20 30 32 27 19 14 10 7 6 4 7 8 7 4 1 1 4 9 12 16 18 19 19 21 23 26 25 20 13 6 3 -2 -8 -16 -28 -27 -15 9 10 11 11 9 6 7 11 14 13 12 14 19 19 16 13 16 18
6 7 7 8 8 9 10 11 12 12 11 9 8 9 12 18 24 25 23 19 15 11 7 5 6 8 10 12 8 2 -2 0 3 8 12 15 17 20 24 27 27 24 18 9 2 -3 -7 -10 -22 -28 -22 3 14 15 10 3 -4 -4 -0 3 6 10 16 20 23 20 15 11 9
7 7 7 7 8 8 9 10 11 12 12 11 10 10 11 13 18 21 23 22 19 16 13 10 9 8 10 14 16 11 5 1 -2 0 4 8 12 16 20 24 26 26 23 14 6 1 -2 -6 -12 -17 -19 -14 5 14 14 4 -7 -7 -2 2 4 9 17 25 29 27 20 10 8
8 7 7 7 7 8 8 8 9 10 11 12 11 11 11 12 14 17 19 20 19 18 17 17 15 14 13 14 17 16 14 12 7 4 4 6 10 12 14 17 22 24 24 19 13 8 4 2 2 1 -6 -23 -5 10 18 14 0 0 6 10 10 14 20 28 32 29 22 12 9
8 8 8 8 7 7 7 7 8 8 9 10 11 11 11 11 12 14 16 17 17 17 18 18 19 19 19 20 19 18 18 19 17 13 8 6 9 10 10 11 15 18 20 19 17 14 12 10 10 9 0 -22 -13 -0 10 10 4 5 10 15 16 18 22 24 22 19 16 13 11
8 8 8 8 8 7 7 7 7 7 8 9 10 10 10 11 12 12 13 14 15 15 16 16 17 19 22 24 25 24 22 20 21 16 10 4 10 12 12 10 11 13 15 16 15 14 13 12 10 7 -1 -20 -20 -8 2 0 2 6 11 17 19 20 19 14 10 9 9 10 11
8 8 8 7 7 7 7 7 7 7 7 7 8 8 9 10 11 11 11 12 13 13 14 14 14 15 17 20 26 32 36 33 24 18 12 7 11 14 15 13 11 11 12 14 14 14 13 12 10 6 -2 -18 -25 -19 -10 -7 -6 1 9 16 21 22 19 12 8 8 9 10 12
8 8 8 7 7 7 7 7 7 7 7 7 7 7 8 8 9 10 11 11 12 12 12 12 12 10 9 9 13 23 37 50 40 27 16 12 14 17 17 15 13 12 12 13 14 14 15 14 13 10 2 -10 -20 -22 -18 -11 -8 -3 4 12 19 22 20 14 12 12 12 13 14
7 7 7 7 7 8 8 7 7 7 7 7 7 7 7 7 8 9 10 11 11 12 12 12 12 11 9 6 4 7 16 30 37 37 32 25 20 18 17 14 12 12 12 12 13 14 14 15 15 14 10 3 -6 -10 -10 -8 -5 -2 2 9 15 17 15 13 12 12 12 11 9
7 7 7 7 7 8 8 8 8 7 7 7 7 7 7 7 7 7 8 9 10 11 13 14 14 14 13 11 8 5 3 5 12 22 32 42 37 29 22 16 12 10 9 9 10 11 12 13 14 14 13 9 4 0 -2 -3 -2 1 4 9 11 11 10 9 9 8 7 6 5
7 7 7 7 7 8 8 8 8 8 8 8 7 7 7 7 7 7 7 8 8 9 11 13 14 15 15 15 13 11 7 4 3 5 12 25 34 36 34 29 24 19 13 9 8 7 8 8 9 10 10 8 5 2 1 0 2 4 7 9 9 7 6 5 6 6 6 7 6
7 7 7 7 7 7 8 8 9 9 9 9 9 8 8 8 7 7 7 7 7 8 8 10 12 13 14 14 14 13 12 11 8 5 4 7 13 20 26 32 34 32 29 24 18 14 11 10 9 9 9 8 7 6 6 7 8 9 9 8 7 5 4 3 4 4 5 6 6
7 7 7 7 7 7 8 8 9 9 10 10 10 10 9 9 8 8 8 7 7 7 8 8 9 10 11 12 12 13 13 13 14 13 11 8 7 8 11 15 20 25 29 31 30 28 25 21 20 18 17 16 16 16 16 16 15 13 10 8 7 5 4 3 3 3 4 4 4
7 7 7 7 7 7 8 8 8 9 10 10 10 10 10 10 9 9 8 7 7 7 7 7 7 8 8 9 10 11 11 12 13 15 16 16 13 10 8 8 10 12 14 19 24 27 28 26 25 24 23 21 20 20 19 19 16 12 8 7 8 8 7 6 5 5 6 6 6
6 7 7 7 7 7 8 8 8 9 9 10 10 11 11 11 10 9 8 8 7 7 7 7 7 7 7 8 8 8 9 9 10 12 14 16 17 16 14 12 10 9 8 9 11 15 18 22 23 24 23 22 19 18 16 16 13 10 6 4 6 8 8 8 8 8 8 8 8
6 6 6 7 7 7 7 8 8 8 9 10 10 10 11 11 10 10 9 9 8 8 7 7 7 7 7 8 8 7 7 7 8 9 10 12 14 16 18 17 15 13 12 10 9 8 9 10 14 17 20 21 20 19 18 16 15 13 10 5 4 4 6 7 7 7 7 7 7
6 6 6 6 7 7 7 7 8 8 9 9 9 10 10 10 10 10 10 10 10 9 9 8 8 8 7 7 7 7 7 7 7 7 7 8 10 12 14 16 16 16 16 15 13 12 10 9 9 10 12 14 16 17 18 18 18 19 19 18 12 9 7 6 5 4 3 2 2
5 5 6 6 6 6 7 7 8 8 9 9 9 9 10 10 10 10 10 10 10 10 10 10 9 9 8 7 7 7 7 7 7 7 7 6 7 8 9 11 14 15 17 18 17 15 13 12 11 10 10 10 10 11 13 14 16 16 16 17 15 12 10 8 7 6 5 4 2
5 5 5 6 6 6 7 7 8 8 8 9 9 9 9 9 10 10 10 10 10 10 10 10 10 9 9 8 8 7 7 6 7 7 7 7 6 6 7 8 10 12 14 16 17 17 16 14 13 12 11 10 10 9 8 9 10 11 13 14 14 13 13 11 10 10 11 12 13
5 5 5 6 6 6 7 7 8 8 9 9 9 9 9 9 9 9 9 9 9 9 9 9 10 10 9 9 9 8 8 7 7 7 7 7 7 7 7 7 8 8 10 12 14 16 16 16 14 13 12 11 10 10 10 10 9 9 10 12 13 15 15 15 14 13 14 16 19
5 5 5 6 6 6 7 7 8 8 9 9 9 9 10 10 10 9 9 9 9 9 9 10 10 9 9 9 10 9 9 8 8 7 7 7 7 7 7 7 7 8 8 9 10 12 14 15 15 14 13 12 11 10 10 10 10 10 10 11 12 13 14 16 15 14 13 13 15
5 5 6 6 6 6 7 7 7 8 8 9 9 10 10 10 10 10 9 9 10 10 10 10 9 9 10 9 10 10 9 9 9 8 8 8 8 8 8 8 8 8 8 8 9 10 12 13 14 14 14 13 12 11 10 9 9 9 10 10 11 12 13 14 14 12 10 7 7
5 6 6 6 6 6 6 7 7 8 8 9 9 10 10 10 10 10 10 10 10 10 9 9 9 9 9 9 9 9 9 9 9 9 9 8 8 8 8 8 8 8 8 8 9 10 11 13 14 15 14 13 12 11 10 9 8 8 8 8 9 10 12 13 13 11 8 4 3
6 6 6 6 6 6 7 7 7 8 8 8 9 10 10 10 10 10 10 9 9 9 9 9 9 9 9 9 9 9 9 9 9 9 9 9 9 9 9 8 8 8 9 9 9 9 10 11 14 16 17 16 14 12 10 8 8 7 7 8 9 10 11 11 12 11 9 7 4
6 6 6 6 6 6 6 7 7 8 8 8 9 9 10 10 10 10 10 9 10 9 9 9 9 9 9 10 10 10 10 10 9 9 9 9 9 9 9 9 9 9 9 9 9 9 10 10 12 14 16 19 20 18 15 11 7 5 5 6 8 10 12 12 11 10 9 9 7
6 6 6 6 6 6 6 7 7 8 8 9 9 9 9 9 10 10 10 10 10 10 9 9 9 9 9 9 10 10 10 10 10 10 9 9 9 9 9 9 9 9 9 9 10 10 10 10 10 11 13 16 19 22 22 20 13 7 3 1 2 4 7 10 12 11 10 10 9
6 6 6 6 6 6 6 6 7 8 8 9 9 9 9 9 9 9 10 10 10 9 9 9 9 9 9 9 9 9 10 10 10 10 10 10 9 9 9 9 9 9 9 9 10 10 10 10 11 11 11 12 14 18 22 26 23 18 10 4 -1 -4 -4 -1 3 6 8 9 10
6 6 6 5 5 5 5 6 7 7 8 8 9 9 9 9 9 9 9 10 9 9 9 9 9 9 9 8 8 8 9 9 10 10 10 10 9 9 9 9 9 9 9 10 10 10 10 10 11 11 11 11 12 13 16 20 24 25 23 17 10 2 -3 -7 -7 -5 -2 1 4
6 6 5 5 4 4 5 5 6 7 8 8 8 9 9 9 8 8 9 9 9 9 9 9 9 9 9 9 8 8 8 8 9 9 10 10 9 9 9 9 9 9 9 10 10 10 10 10 11 11 12 12 12 12 13 14 18 22 25 27 23 17 10 3 -2 -5 -7 -7 -4
6 6 5 4 4 4 4 5 6 7 7 8 8 8 8 8 8 8 8 9 9 9 9 9 9 9 9 9 9 8 8 8 8 8 8 9 9 9 9 9 9 9 9 10 10 10 10 10 10 11 11 12 12 12 12 13 14 16 20 23 26 26 24 19 12 6 2 -2 -3
Height
2967 2965 2964 2962 2961 2959 2957 2956 2954 2953 2951 2949 2948 2946 2945 2943 2940 2938 2937 2936 2935 2934 2934 2933 2932 2932 2932 2932 2931 2932 2932 2932 2932 2932 2932 2932 2934 2935 2936 2937 2939 2940 2942 2944 2945 2947 2949 2950 2952 2954 2955 2957 2959 2960 2961 2962 2964 2965 2967 2968 2970 2971 2973 2974 2976 2978 2979 2981 2982
2969 2967 2965 2963 2961 2960 2958 2956 2955 2954 2952 2950 2949 2947 2946 2945 2943 2941 2939 2938 2937 2937 2936 2935 2935 2934 2934 2934 2934 2934 2934 2935 2935 2935 2934 2934 2935 2936 2938 2938 2940 2941 2943 2944 2946 2948 2950 2951 2952 2954 2956 2957 2959 2960 2961 2962 2963 2965 2966 2968 2970 2971 2973 2974 2975 2977 2979 2980 2982
2969 2968 2966 2964 2962 2960 2959 2957 2955 2954 2953 2951 2950 2948 2947 2945 2944 2943 2941 2940 2939 2939 2938 2937 2937 2936 2936 2936 2936 2936 2936 2937 2938 2938 2938 2937 2938 2939 2939 2940 2942 2943 2944 2946 2947 2949 2950 2952 2953 2954 2956 2957 2959 2960 2962 2963 2964 2965 2966 2968 2969 2971 2972 2974 2975 2977 2979 2980 2982
2970 2968 2966 2964 2963 2961 2959 2958 2956 2955 2954 2953 2951 2949 2948 2947 2945 2944 2943 2942 2941 2940 2939 2939 2939 2938 2938 2938 2938 2938 2938 2939 2939 2940 2940 2941 2941 2941 2941 2943 2944 2945 2946 2948 2949 2950 2951 2953 2954 2955 2956 2958 2959 2961 2962 2963 2964 2965 2967 2968 2969 2970 2972 2973 2975 2976 2978 2980 2981
2971 2969 2967 2965 2964 2962 2960 2959 2958 2956 2955 2954 2953 2951 2949 2948 2947 2946 2945 2944 2943 2942 2942 2941 2940 2940 2940 2939 2939 2939 2940 2940 2940 2941 2942 2943 2944 2944 2944 2945 2946 2948 2949 2950 2951 2952 2953 2954 2954 2956 2957 2958 2959 2960 2961 2962 2963 2965 2966 2968 2969 2970 2971 2973 2974 2976 2977 2979 2980
2972 2970 2968 2967 2965 2963 2962 2960 2959 2957 2956 2955 2954 2953 2951 2950 2949 2948 2947 2946 2945 2944 2944 2943 2942 2942 2941 2941 2941 2941 2941 2941 2942 2942 2943 2944 2945 2946 2947 2947 2948 2949 2951 2952 2953 2954 2954 2955 2955 2956 2957 2958 2959 2959 2960 2961 2962 2964 2966 2967 2969 2969 2971 2972 2974 2975 2976 2978 2979
2973 2971 2969 2968 2966 2964 2963 2961 2959 2958 2957 2955 2954 2953 2952 2951 2950 2949 2948 2948 2947 2946 2945 2944 2944 2943 2943 2942 2942 2942 2942 2942 2943 2943 2944 2945 2946 2947 2948 2949 2949 2950 2950 2951 2953 2954 2955 2956 2957 2957 2958 2959 2959 2960 2960 2961 2961 2963 2965 2966 2968 2969 2970 2971 2973 2974 2976 2976 2977
2974 2973 2971 2969 2967 2966 2964 2962 2961 2959 2958 2956 2955 2954 2953 2952 2951 2950 2950 2949 2949 2948 2947 2946 2944 2944 2944 2944 2944 2944 2944 2944 2944 2944 2945 2945 2947 2948 2949 2950 2951 2951 2951 2951 2952 2953 2954 2955 2957 2958 2959 2960 2960 2960 2960 2961 2961 2963 2964 2965 2967 2968 2969 2971 2972 2973 2974 2974 2975
2976 2974 2972 2970 2969 2967 2965 2964 2962 2960 2959 2957 2956 2954 2954 2953 2952 2951 2951 2950 2950 2949 2949 2948 2947 2946 2945 2945 2945 2945 2945 2945 2945 2945 2946 2946 2947 2948 2949 2950 2951 2952 2953 2953 2953 2954 2954 2955 2956 2958 2959 2960 2960 2959 2959 2960 2961 2962 2964 2964 2966 2967 2969 2970 2971 2971 2972 2973 2974
2977 2975 2974 2972 2970 2968 2966 2965 2964 2962 2960 2959 2957 2956 2954 2953 2953 2952 2952 2951 2951 2951 2950 2950 2949 2948 2947 2946 2947 2946 2946 2946 2946 2947 2947 2948 2948 2949 2950 2951 2952 2953 2954 2954 2954 2954 2955 2955 2956 2957 2958 2957 2957 2958 2959 2960 2961 2962 2963 2964 2965 2967 2968 2969 2970 2971 2972 2973 2974
2978 2976 2974 2973 2971 2969 2968 2966 2965 2963 2962 2960 2959 2957 2955 2954 2953 2953 2952 2952 2952 2952 2951 2951 2951 2950 2949 2949 2948 2948 2948 2948 2948 2948 2948 2948 2949 2949 2950 2951 2952 2953 2954 2954 2954 2954 2955 2955 2955 2955 2954 2954 2956 2958 2959 2960 2961 2962 2963 2964 2965 2966 2967 2968 2969 2970 2971 2972 2974
2979 2977 2976 2974 2972 2971 2969 2968 2966 2965 2963 2961 2960 2958 2957 2955 2954 2954 2953 2953 2952 2952 2952 2952 2952 2951 2951 2950 2949 2949 2948 2949 2949 2949 2949 2949 2949 2949 2950 2951 2952 2952 2953 2954 2954 2955 2955 2955 2955 2955 2955 2955 2957 2958 2959 2960 2961 2962 2963 2964 2965 2965 2966 2967 2968 2969 2970 2972 2973
2980 2979 2977 2975 2974 2972 2970 2969 2968 2966 2964 2963 2961 2959 2958 2957 2956 2955 2954 2953 2953 2953 2952 2952 2952 2952 2952 2951 2951 2950 2949 2949 2949 2949 2949 2949 2949 2949 2950 2950 2951 2952 2953 2954 2954 2955 2956 2956 2956 2955 2955 2956 2957 2958 2959 2960 2960 2961 2962 2963 2964 2965 2965 2966 2967 2969 2970 2971 2973
2982 2980 2979 2977 2975 2974 2972 2970 2969 2967 2966 2964 2963 2961 2959 2958 2957 2956 2955 2954 2954 2953 2953 2953 2952 2952 2952 2952 2951 2951 2950 2949 2949 2949 2948 2949 2949 2949 2950 2950 2951 2952 2952 2953 2954 2954 2955 2955 2955 2955 2956 2956 2958 2959 2959 2960 2960 2961 2962 2963 2963 2964 2965 2966 2967 2968 2969 2971 2972
2983 2981 2980 2978 2977 2975 2974 2972 2970 2969 2967 2965 2964 2962 2961 2960 2959 2958 2957 2956 2955 2954 2954 2953 2953 2952 2952 2952 2952 2951 2951 2951 2950 2949 2949 2948 2948 2949 2949 2950 2950 2951 2952 2952 2953 2954 2954 2955 2955 2956 2956 2957 2958 2958 2958 2959 2960 2961 2962 2963 2963 2964 2964 2965 2966 2967 2969 2970 2972
2984 2982 2981 2979 2978 2976 2975 2973 2971 2970 2968 2967 2965 2964 2962 2961 2960 2959 2958 2957 2956 2955 2954 2954 2953 2953 2952 2952 2952 2951 2951 2951 2951 2951 2950 2950 2949 2949 2949 2949 2949 2950 2950 2951 2952 2953 2954 2954 2955 2955 2956 2956 2957 2957 2957 2958 2959 2960 2961 2962 2963 2963 2964 2964 2965 2966 2967 2969 2971
2984 2983 2982 2980 2979 2977 2975 2974 2973 2971 2969 2968 2966 2965 2964 2962 2961 2960 2959 2959 2958 2957 2956 2955 2954 2953 2953 2953 2952 2952 2951 2951 2951 2951 2951 2951 2951 2950 2949 2949 2949 2949 2949 2950 2951 2952 2952 2953 2954 2954 2955 2955 2956 2956 2957 2958 2959 2959 2959 2960 2961 2962 2963 2964 2964 2965 2966 2967 2969
2985 2984 2982 2981 2979 2978 2976 2975 2973 2972 2971 2969 2968 2966 2965 2964 2963 2961 2961 2960 2959 2958 2957 2956 2956 2955 2954 2954 2953 2953 2952 2951 2951 2951 2952 2952 2952 2951 2951 2950 2950 2950 2950 2950 2950 2951 2951 2952 2953 2954 2954 2954 2954 2955 2956 2957 2958 2959 2959 2959 2960 2961 2962 2962 2963 2964 2965 2966 2967
2985 2984 2983 2981 2980 2978 2977 2975 2974 2973 2971 2970 2969 2968 2966 2965 2964 2963 2962 2961 2960 2959 2959 2958 2957 2956 2955 2955 2954 2954 2953 2951 2951 2951 2952 2952 2952 2952 2952 2951 2951 2951 2951 2951 2951 2951 2951 2952 2952 2953 2953 2953 2953 2954 2955 2957 2958 2959 2959 2959 2959 2960 2961 2962 2962 2963 2964 2964 2965
2985 2984 2983 2982 2980 2979 2978 2976 2975 2974 2972 2971 2970 2969 2968 2966 2965 2964 2963 2962 2961 2960 2959 2959 2958 2957 2956 2955 2954 2954 2953 2952 2951 2951 2951 2951 2952 2952 2952 2952 2952 2952 2952 2952 2952 2952 2952 2952 2953 2953 2953 2953 2953 2954 2955 2956 2958 2959 2959 2959 2959 2959 2960 2961 2961 2962 2963 2964 2964
2986 2984 2983 2982 2981 2979 2978 2977 2976 2974 2973 2972 2971 2969 2969 2967 2966 2965 2964 2963 2962 2961 2960 2959 2958 2957 2956 2955 2955 2954 2954 2953 2953 2952 2952 2951 2951 2952 2952 2952 2952 2952 2952 2952 2952 2952 2953 2953 2953 2954 2954 2954 2954 2954 2955 2955 2957 2957 2958 2958 2958 2959 2959 2960 2960 2961 2962 2962 2963
2986 2985 2984 2983 2981 2980 2979 2978 2977 2975 2974 2973 2972 2970 2969 2968 2967 2966 2965 2964 2963 2962 2961 2960 2959 2958 2957 2956 2955 2954 2954 2954 2953 2953 2953 2952 2952 2952 2952 2953 2953 2953 2953 2953 2953 2953 2953 2954 2954 2954 2954 2954 2954 2954 2955 2955 2956 2956 2957 2957 2958 2958 2958 2959 2959 2960 2960 2961 2961
2986 2985 2984 2983 2982 2981 2980 2979 2978 2976 2975 2974 2973 2972 2970 2969 2968 2967 2966 2965 2964 2963 2962 2961 2960 2959 2958 2957 2956 2955 2954 2954 2954 2953 2953 2953 2953 2953 2953 2953 2953 2953 2953 2954 2954 2954 2954 2954 2954 2954 2955 2955 2955 2955 2955 2955 2955 2956 2956 2956 2957 2957 2958 2958 2958 2959 2959 2959 2960
2986 2985 2984 2983 2982 2981 2980 2979 2978 2977 2976 2975 2974 2973 2971 2970 2969 2968 2967 2966 2964 2964 2963 2962 2961 2960 2959 2958 2957 2956 2955 2955 2954 2954 2954 2954 2953 2953 2953 2953 2953 2953 2953 2953 2953 2954 2954 2954 2954 2954 2955 2954 2954 2954 2954 2954 2954 2954 2955 2955 2956 2956 2957 2957 2957 2958 2958 2959 2959
2986 2985 2984 2984 2982 2981 2980 2979 2979 2978 2976 2975 2974 2973 2972 2971 2970 2969 2968 2966 2965 2964 2963 2963 2962 2961 2960 2959 2958 2957 2956 2956 2955 2954 2954 2954 2954 2954 2954 2953 2953 2953 2953 2953 2953 2953 2953 2954 2954 2954 2954 2954 2954 2953 2953 2953 2953 2954 2954 2954 2954 2955 2955 2956 2956 2957 2957 2958 2958
2986 2985 2984 2984 2983 2982 2981 2980 2979 2978 2977 2976 2975 2974 2973 2972 2970 2969 2968 2967 2966 2965 2964 2963 2962 2961 2961 2960 2959 2958 2957 2956 2956 2955 2955 2954 2954 2954 2954 2954 2954 2954 2953 2953 2953 2953 2953 2953 2953 2953 2953 2953 2953 2953 2952 2952 2952 2952 2953 2953 2954 2954 2954 2955 2955 2956 2956 2957 2957
2987 2986 2985 2984 2983 2982 2981 2980 2979 2978 2977 2976 2975 2974 2973 2972 2971 2970 2969 2968 2967 2966 2965 2964 2963 2962 2961 2960 2959 2959 2958 2957 2957 2956 2955 2955 2954 2954 2954 2954 2954 2954 2953 2953 2953 2953 2953 2953 2953 2953 2953 2953 2953 2952 2952 2952 2952 2952 2952 2952 2953 2953 2953 2954 2954 2955 2955 2956 2956
2986 2986 2985 2984 2983 2982 2981 2980 2979 2978 2977 2976 2975 2974 2973 2972 2971 2970 2969 2968 2967 2966 2965 2964 2963 2962 2961 2960 2960 2959 2959 2958 2957 2956 2956 2955 2955 2954 2954 2954 2954 2954 2953 2953 2953 2953 2953 2952 2952 2952 2952 2953 2952 2952 2952 2952 2952 2952 2951 2951 2952 2952 2952 2953 2953 2954 2954 2954 2955
2986 2985 2985 2984 2983 2982 2981 2980 2979 2978 2977 2976 2974 2974 2973 2971 2970 2969 2969 2968 2967 2966 2965 2964 2964 2963 2962 2961 2960 2959 2959 2958 2957 2957 2956 2956 2955 2955 2954 2954 2954 2954 2953 2953 2953 2953 2952 2952 2952 2952 2952 2952 2952 2952 2952 2951 2951 2951 2951 2951 2951 2951 2951 2952 2952 2952 2953 2953 2954
2986 2985 2984 2984 2983 2982 2981 2980 2979 2978 2977 2976 2974 2974 2972 2971 2970 2969 2969 2968 2967 2966 2965 2964 2963 2963 2962 2961 2960 2959 2959 2958 2957 2957 2956 2956 2955 2955 2954 2954 2954 2953 2953 2953 2953 2952 2952 2952 2951 2951 2951 2951 2951 2951 2950 2950 2950 2950 2950 2950 2950 2950 2950 2950 2951 2951 2951 2952 2953
2986 2985 2984 2983 2983 2982 2981 2980 2979 2978 2977 2976 2974 2973 2972 2971 2970 2969 2968 2967 2966 2965 2964 2964 2963 2962 2961 2961 2960 2959 2959 2958 2957 2957 2956 2955 2955 2955 2954 2954 2953 2953 2953 2953 2952 2952 2952 2951 2951 2951 2950 2950 2950 2950 2950 2949 2949 2949 2949 2949 2949 2949 2949 2949 2950 2950 2950 2951 2951
2985 2985 2984 2983 2982 2981 2980 2979 2979 2978 2977 2975 2974 2973 2972 2971 2970 2969 2968 2967 2966 2965 2964 2963 2963 2962 2961 2960 2960 2959 2959 2958 2957 2956 2956 2955 2955 2954 2954 2954 2953 2953 2952 2952 2952 2951 2951 2951 2950 2950 2950 2949 2949 2949 2949 2949 2949 2949 2949 2948 2948 2948 2948 2949 2949 2949 2949 2950 2950
2985 2984 2984 2983 2982 2981 2980 2979 2978 2977 2976 2975 2974 2973 2972 2971 2969 2969 2967 2966 2965 2964 2964 2963 2962 2961 2960 2960 2959 2959 2958 2957 2957 2956 2955 2955 2954 2954 2953 2953 2953 2952 2952 2951 2951 2951 2950 2950 2950 2949 2949 2949 2949 2948 2948 2948 2948 2948 2948 2948 2947 2947 2947 2948 2948 2948 2948 2949 2949
2985 2984 2983 2982 2981 2981 2980 2979 2978 2977 2976 2975 2974 2973 2971 2970 2969 2968 2967 2966 2965 2964 2963 2962 2961 2961 2960 2959 2959 2958 2957 2957 2956 2955 2955 2954 2954 2953 2953 2952 2952 2952 2951 2951 2950 2950 2950 2949 2949 2949 2948 2948 2948 2947 2947 2947 2947 2947 2947 2947 2947 2947 2947 2947 2947 2947 2947 2947 2948
2984 2983 2983 2982 2981 2980 2979 2979 2978 2977 2976 2974 2974 2972 2971 2970 2969 2968 2966 2965 2964 2963 2962 2962 2961 2960 2959 2959 2958 2957 2957 2956 2955 2955 2954 2954 2953 2953 2952 2952 2951 2951 2950 2950 2950 2949 2949 2949 2948 2948 2948 2947 2947 2946 2946 2946 2946 2946 2946 2946 2946 2946 2946 2946 2946 2946 2946 2946 2946
2984 2983 2982 2981 2980 2980 2979 2978 2977 2976 2975 2974 2973 2972 2971 2969 2968 2967 2966 2965 2964 2963 2962 2961 2960 2959 2959 2958 2957 2957 2956 2955 2955 2954 2954 2953 2953 2952 2951 2951 2950 2950 2949 2949 2949 2948 2948 2948 2947 2947 2947 2946 2946 2945 2945 2945 2945 2945 2945 2945 2945 2945 2945 2945 2945 2945 2945 2945 2945
2983 2982 2981 2980 2980 2979 2978 2977 2977 2976 2974 2974 2973 2971 2970 2969 2968 2967 2966 2964 2964 2962 2961 2960 2959 2959 2958 2957 2956 2956 2955 2955 2954 2953 2953 2952 2952 2951 2951 2950 2950 2949 2949 2948 2948 2947 2947 2946 2946 2946 2945 2945 2945 2944 2944 2944 2944 2944 2944 2944 2944 2944 2944 2944 2944 2944 2944 2944 2944
2982 2981 2981 2980 2979 2978 2978 2977 2976 2975 2974 2973 2972 2971 2969 2968 2967 2966 2965 2964 2963 2962 2961 2960 2959 2958 2957 2956 2955 2955 2954 2954 2953 2953 2952 2951 2951 2950 2950 2949 2949 2948 2948 2947 2947 2946 2945 2945 2945 2944 2944 2944 2943 2943 2943 2943 2943 2943 2943 2943 2943 2943 2943 2943 2943 2943 2943 2943 2943
2981 2981 2980 2979 2978 2978 2977 2976 2975 2974 2973 2972 2971 2970 2969 2968 2966 2965 2964 2964 2962 2961 2960 2959 2958 2957 2956 2955 2954 2954 2953 2953 2952 2951 2951 2950 2950 2949 2949 2948 2948 2947 2947 2946 2946 2945 2944 2944 2944 2943 2943 2942 2942 2942 2941 2941 2941 2941 2941 2941 2941 2941 2942 2942 2942 2942 2942 2942 2942
2980 2980 2979 2978 2978 2977 2976 2975 2974 2973 2972 2971 2970 2969 2968 2967 2966 2964 2964 2963 2962 2961 2959 2959 2958 2957 2956 2955 2954 2953 2952 2951 2951 2950 2950 2949 2949 2948 2948 2947 2947 2946 2946 2945 2945 2944 2944 2943 2942 2942 2941 2941 2940 2940 2939 2939 2939 2939 2939 2939 2939 2939 2939 2939 2940 2940 2940 2940 2940
2979 2979 2978 2977 2977 2976 2975 2974 2973 2972 2971 2970 2969 2968 2967 2966 2965 2964 2963 2962 2961 2960 2959 2958 2957 2956 2955 2954 2953 2952 2951 2950 2950 2949 2949 2948 2947 2947 2946 2946 2945 2945 2944 2944 2944 2943 2942 2942 2941 2940 2940 2939 2939 2939 2938 2938 2937 2937 2937 2937 2937 2937 2937 2937 2937 2938 2938 2938 2939